| time (UTC) | temp F | wind direction | speed MPH | gust MPH | rain 1hr in | rain 24hr in | rain mn in | humidity % | barometer mb |
| 20260504043035 | 57 | 216 | 11.0 | 25.0 | 0.00 | 0.00 | 0.00 | 40 | 1016.6 |
| 20260504042512 | 57 | 210 | 18.0 | 25.0 | 0.00 | 0.00 | 0.00 | 39 | 1016.4 |
| 20260504042013 | 57 | 245 | 14.0 | 21.0 | 0.00 | 0.00 | 0.00 | 38 | 1016.1 |
| 20260504041531 | 56 | 218 | 12.0 | 19.0 | 0.00 | 0.00 | 0.00 | 38 | 1015.8 |
| 20260504041012 | 53 | 207 | 9.0 | 13.0 | 0.00 | 0.00 | 0.00 | 41 | 1015.6 |
| 20260504040511 | 50 | 0 | 0.0 | 6.0 | 0.00 | 0.00 | 0.00 | 42 | 1015.6 |
| 20260504040056 | 49 | 206 | 4.0 | 6.0 | 0.00 | 0.00 | 0.00 | 44 | 1015.4 |
| 20260504035512 | 49 | 105 | 3.0 | 5.0 | 0.00 | 0.00 | 0.00 | 44 | 1014.8 |
| 20260504035016 | 49 | 97 | 3.0 | 6.0 | 0.00 | 0.00 | 0.00 | 45 | 1014.6 |
| 20260504034530 | 48 | 98 | 4.0 | 6.0 | 0.00 | 0.00 | 0.00 | 45 | 1014.5 |
| 20260504034011 | 48 | 86 | 3.0 | 5.0 | 0.00 | 0.00 | 0.00 | 45 | 1014.6 |
| 20260504033511 | 48 | 85 | 3.0 | 5.0 | 0.00 | 0.00 | 0.00 | 45 | 1014.5 |
| 20260504033035 | 49 | 96 | 3.0 | 5.0 | 0.00 | 0.00 | 0.00 | 45 | 1014.6 |
| 20260504032512 | 49 | 92 | 4.0 | 5.0 | 0.00 | 0.00 | 0.00 | 44 | 1014.6 |
| 20260504032013 | 49 | 90 | 4.0 | 5.0 | 0.00 | 0.00 | 0.00 | 45 | 1014.6 |
| 20260504031530 | 49 | 105 | 3.0 | 5.0 | 0.00 | 0.00 | 0.00 | 44 | 1014.6 |
| 20260504031012 | 49 | 94 | 2.0 | 4.0 | 0.00 | 0.00 | 0.00 | 45 | 1014.6 |
| 20260504030514 | 50 | 85 | 3.0 | 4.0 | 0.00 | 0.00 | 0.00 | 44 | 1014.6 |
| 20260504030032 | 51 | 93 | 3.0 | 4.0 | 0.00 | 0.00 | 0.00 | 42 | 1014.6 |
| 20260504025516 | 53 | 94 | 1.0 | 2.0 | 0.00 | 0.00 | 0.00 | 39 | 1014.5 |
| 20260504025010 | 54 | 91 | 0.0 | 2.0 | 0.00 | 0.00 | 0.00 | 36 | 1014.5 |
| 20260504024531 | 56 | 111 | 1.0 | 2.0 | 0.00 | 0.00 | 0.00 | 33 | 1014.4 |
| 20260504024013 | 56 | 0 | 0.0 | 2.0 | 0.00 | 0.00 | 0.00 | 33 | 1014.4 |
| 20260504023515 | 56 | 83 | 1.0 | 2.0 | 0.00 | 0.00 | 0.00 | 33 | 1014.4 |
| 20260504023034 | 56 | 0 | 0.0 | 1.0 | 0.00 | 0.00 | 0.00 | 33 | 1014.4 |
| 20260504022515 | 58 | 0 | 0.0 | 0.0 | 0.00 | 0.00 | 0.00 | 31 | 1014.2 |
| 20260504022012 | 58 | 308 | 0.0 | 1.0 | 0.00 | 0.00 | 0.00 | 30 | 1014.2 |
| 20260504021532 | 58 | 308 | 0.0 | 1.0 | 0.00 | 0.00 | 0.00 | 30 | 1014.3 |
| 20260504021016 | 59 | 0 | 0.0 | 1.0 | 0.00 | 0.00 | 0.00 | 30 | 1014.2 |
| 20260504020515 | 59 | 278 | 0.0 | 1.0 | 0.00 | 0.00 | 0.00 | 29 | 1014.4 |
| 20260504020031 | 59 | 278 | 0.0 | 1.0 | 0.00 | 0.00 | 0.00 | 29 | 1014.3 |
| 20260504015515 | 59 | 283 | 0.0 | 3.0 | 0.00 | 0.00 | 0.00 | 29 | 1014.4 |
| 20260504015013 | 60 | 283 | 0.0 | 3.0 | 0.00 | 0.00 | 0.00 | 29 | 1014.4 |
| 20260504014532 | 61 | 286 | 0.0 | 3.0 | 0.00 | 0.00 | 0.00 | 28 | 1014.4 |
| 20260504014015 | 62 | 271 | 1.0 | 4.0 | 0.00 | 0.00 | 0.00 | 28 | 1014.4 |
| 20260504013516 | 62 | 262 | 1.0 | 5.0 | 0.00 | 0.00 | 0.00 | 28 | 1014.5 |
| 20260504013031 | 63 | 270 | 2.0 | 5.0 | 0.00 | 0.00 | 0.00 | 26 | 1014.4 |
| 20260504012514 | 63 | 276 | 1.0 | 5.0 | 0.00 | 0.00 | 0.00 | 25 | 1014.5 |
| 20260504012017 | 63 | 277 | 3.0 | 6.0 | 0.00 | 0.00 | 0.00 | 24 | 1014.4 |
| 20260504011531 | 64 | 264 | 2.0 | 6.0 | 0.00 | 0.00 | 0.00 | 25 | 1014.4 |
| 20260504011013 | 64 | 248 | 4.0 | 6.0 | 0.00 | 0.00 | 0.00 | 24 | 1014.5 |
| 20260504010515 | 64 | 278 | 2.0 | 6.0 | 0.00 | 0.00 | 0.00 | 25 | 1014.6 |
| 20260504010034 | 63 | 282 | 4.0 | 11.0 | 0.00 | 0.00 | 0.00 | 25 | 1014.5 |
| 20260504005514 | 64 | 242 | 4.0 | 11.0 | 0.00 | 0.00 | 0.00 | 25 | 1014.6 |
| 20260504005013 | 65 | 271 | 6.0 | 11.0 | 0.00 | 0.00 | 0.00 | 23 | 1014.6 |
| 20260504004542 | 65 | 238 | 6.0 | 12.0 | 0.00 | 0.00 | 0.00 | 24 | 1014.6 |
| 20260504004014 | 64 | 247 | 6.0 | 12.0 | 0.00 | 0.00 | 0.00 | 23 | 1014.7 |
| 20260504003519 | 64 | 272 | 7.0 | 15.0 | 0.00 | 0.00 | 0.00 | 23 | 1014.7 |
| 20260504003033 | 64 | 247 | 8.0 | 16.0 | 0.00 | 0.00 | 0.00 | 23 | 1014.8 |
| 20260504002513 | 66 | 254 | 10.0 | 16.0 | 0.00 | 0.00 | 0.00 | 23 | 1014.9 |
| 20260504002015 | 67 | 271 | 9.0 | 15.0 | 0.00 | 0.00 | 0.00 | 22 | 1014.8 |
| 20260504001534 | 66 | 262 | 6.0 | 14.0 | 0.00 | 0.00 | 0.00 | 24 | 1014.8 |
| 20260504001014 | 65 | 274 | 9.0 | 16.0 | 0.00 | 0.00 | 0.00 | 23 | 1014.8 |
| 20260504000513 | 65 | 225 | 9.0 | 17.0 | 0.00 | 0.00 | 0.00 | 23 | 1014.9 |
| 20260504000033 | 65 | 262 | 13.0 | 19.0 | 0.00 | 0.00 | 0.00 | 23 | 1015.0 |
| 20260503235513 | 67 | 212 | 9.0 | 19.0 | 0.00 | 0.00 | 0.00 | 23 | 1015.0 |
| 20260503235012 | 66 | 280 | 10.0 | 19.0 | 0.00 | 0.00 | 0.00 | 23 | 1015.0 |
| 20260503234534 | 66 | 219 | 11.0 | 17.0 | 0.00 | 0.00 | 0.00 | 22 | 1015.1 |
| 20260503234014 | 67 | 235 | 7.0 | 12.0 | 0.00 | 0.00 | 0.00 | 23 | 1015.0 |
| 20260503233513 | 67 | 296 | 7.0 | 12.0 | 0.00 | 0.00 | 0.00 | 21 | 1014.9 |
| 20260503233033 | 66 | 266 | 6.0 | 12.0 | 0.00 | 0.00 | 0.00 | 21 | 1014.9 |
| 20260503232512 | 65 | 274 | 4.0 | 10.0 | 0.00 | 0.00 | 0.00 | 22 | 1015.0 |
| 20260503232012 | 66 | 280 | 7.0 | 10.0 | 0.00 | 0.00 | 0.00 | 22 | 1015.0 |
| 20260503231532 | 64 | 297 | 6.0 | 9.0 | 0.00 | 0.00 | 0.00 | 22 | 1015.1 |
| 20260503231014 | 65 | 214 | 3.0 | 10.0 | 0.00 | 0.00 | 0.00 | 23 | 1015.3 |
| 20260503230516 | 65 | 297 | 6.0 | 10.0 | 0.00 | 0.00 | 0.00 | 23 | 1015.2 |
| 20260503230034 | 65 | 291 | 3.0 | 10.0 | 0.00 | 0.00 | 0.00 | 22 | 1015.3 |
| 20260503225513 | 64 | 279 | 4.0 | 13.0 | 0.00 | 0.00 | 0.00 | 24 | 1015.4 |
| 20260503225015 | 65 | 245 | 6.0 | 13.0 | 0.00 | 0.00 | 0.00 | 23 | 1015.5 |
| 20260503224531 | 65 | 247 | 8.0 | 14.0 | 0.00 | 0.00 | 0.00 | 24 | 1015.4 |
| 20260503224014 | 64 | 244 | 7.0 | 14.0 | 0.00 | 0.00 | 0.00 | 24 | 1015.5 |
| 20260503223513 | 65 | 265 | 7.0 | 14.0 | 0.00 | 0.00 | 0.00 | 22 | 1015.6 |
| 20260503223033 | 64 | 0 | 2.0 | 15.0 | 0.00 | 0.00 | 0.00 | 22 | 1015.5 |
| 20260503222512 | 64 | 231 | 7.0 | 17.0 | 0.00 | 0.00 | 0.00 | 22 | 1015.9 |
| 20260503222015 | 64 | 264 | 12.0 | 17.0 | 0.00 | 0.00 | 0.00 | 23 | 1015.7 |
| 20260503221534 | 65 | 274 | 10.0 | 16.0 | 0.00 | 0.00 | 0.00 | 23 | 1015.8 |
| 20260503221012 | 65 | 301 | 7.0 | 15.0 | 0.00 | 0.00 | 0.00 | 23 | 1015.9 |
| 20260503220519 | 65 | 247 | 11.0 | 15.0 | 0.00 | 0.00 | 0.00 | 22 | 1016.1 |
| 20260503220032 | 65 | 281 | 6.0 | 15.0 | 0.00 | 0.00 | 0.00 | 22 | 1016.1 |
| 20260503215513 | 66 | 304 | 8.0 | 15.0 | 0.00 | 0.00 | 0.00 | 24 | 1016.2 |
| 20260503215013 | 65 | 228 | 8.0 | 16.0 | 0.00 | 0.00 | 0.00 | 23 | 1016.4 |
| 20260503214532 | 64 | 224 | 10.0 | 17.0 | 0.00 | 0.00 | 0.00 | 23 | 1016.6 |
| 20260503214013 | 64 | 239 | 9.0 | 17.0 | 0.00 | 0.00 | 0.00 | 22 | 1016.5 |
| 20260503213514 | 66 | 242 | 7.0 | 16.0 | 0.00 | 0.00 | 0.00 | 22 | 1016.6 |
| 20260503213032 | 65 | 224 | 11.0 | 16.0 | 0.00 | 0.00 | 0.00 | 22 | 1016.7 |
| 20260503212513 | 65 | 255 | 7.0 | 16.0 | 0.00 | 0.00 | 0.00 | 23 | 1016.7 |
| 20260503212014 | 65 | 241 | 10.0 | 16.0 | 0.00 | 0.00 | 0.00 | 21 | 1016.9 |
| 20260503211531 | 65 | 203 | 10.0 | 14.0 | 0.00 | 0.00 | 0.00 | 21 | 1017.0 |
| 20260503211020 | 65 | 224 | 8.0 | 14.0 | 0.00 | 0.00 | 0.00 | 22 | 1016.9 |
| 20260503210513 | 65 | 217 | 9.0 | 14.0 | 0.00 | 0.00 | 0.00 | 21 | 1017.2 |
| 20260503210033 | 66 | 207 | 9.0 | 14.0 | 0.00 | 0.00 | 0.00 | 21 | 1017.2 |
| 20260503205517 | 67 | 205 | 3.0 | 17.0 | 0.00 | 0.00 | 0.00 | 21 | 1017.4 |
| 20260503205016 | 66 | 222 | 7.0 | 17.0 | 0.00 | 0.00 | 0.00 | 23 | 1017.4 |
| 20260503204534 | 66 | 215 | 11.0 | 15.0 | 0.00 | 0.00 | 0.00 | 22 | 1017.6 |
| 20260503204019 | 67 | 238 | 8.0 | 16.0 | 0.00 | 0.00 | 0.00 | 21 | 1017.6 |
| 20260503203518 | 66 | 162 | 10.0 | 16.0 | 0.00 | 0.00 | 0.00 | 21 | 1017.7 |
| 20260503203030 | 66 | 204 | 8.0 | 16.0 | 0.00 | 0.00 | 0.00 | 23 | 1017.8 |
| 20260503202516 | 65 | 8 | 0.0 | 10.0 | 0.00 | 0.00 | 0.00 | 22 | 1017.8 |
| 20260503202014 | 65 | 239 | 6.0 | 18.0 | 0.00 | 0.00 | 0.00 | 23 | 1017.9 |
| 20260503201534 | 66 | 317 | 3.0 | 18.0 | 0.00 | 0.00 | 0.00 | 20 | 1018.0 |
| 20260503201014 | 68 | 217 | 9.0 | 18.0 | 0.00 | 0.00 | 0.00 | 20 | 1018.0 |
| 20260503200514 | 68 | 236 | 7.0 | 17.0 | 0.00 | 0.00 | 0.00 | 20 | 1017.9 |
| 20260503200032 | 67 | 257 | 7.0 | 17.0 | 0.00 | 0.00 | 0.00 | 19 | 1018.1 |
| 20260503195513 | 68 | 154 | 10.0 | 17.0 | 0.00 | 0.00 | 0.00 | 20 | 1018.2 |
| 20260503195016 | 66 | 200 | 10.0 | 15.0 | 0.00 | 0.00 | 0.00 | 23 | 1018.3 |
| 20260503194534 | 65 | 186 | 10.0 | 18.0 | 0.00 | 0.00 | 0.00 | 24 | 1018.3 |
| 20260503194013 | 65 | 189 | 10.0 | 18.0 | 0.00 | 0.00 | 0.00 | 22 | 1018.4 |
| 20260503193517 | 65 | 203 | 11.0 | 20.0 | 0.00 | 0.00 | 0.00 | 21 | 1018.5 |
| 20260503193040 | 64 | 231 | 9.0 | 20.0 | 0.00 | 0.00 | 0.00 | 24 | 1018.6 |
| 20260503192514 | 64 | 201 | 13.0 | 17.0 | 0.00 | 0.00 | 0.00 | 23 | 1018.5 |
| 20260503192013 | 64 | 240 | 11.0 | 16.0 | 0.00 | 0.00 | 0.00 | 22 | 1018.5 |
| 20260503191531 | 64 | 240 | 9.0 | 16.0 | 0.00 | 0.00 | 0.00 | 23 | 1018.6 |
| 20260503191016 | 65 | 243 | 9.0 | 16.0 | 0.00 | 0.00 | 0.00 | 24 | 1018.7 |
| 20260503190514 | 66 | 275 | 6.0 | 15.0 | 0.00 | 0.00 | 0.00 | 23 | 1018.8 |
| 20260503190032 | 64 | 276 | 8.0 | 19.0 | 0.00 | 0.00 | 0.00 | 24 | 1018.9 |
| 20260503185513 | 65 | 252 | 5.0 | 19.0 | 0.00 | 0.00 | 0.00 | 23 | 1018.8 |
| 20260503185017 | 66 | 221 | 10.0 | 19.0 | 0.00 | 0.00 | 0.00 | 22 | 1018.9 |
| 20260503184530 | 64 | 172 | 4.0 | 12.0 | 0.00 | 0.00 | 0.00 | 23 | 1019.1 |
| 20260503184012 | 63 | 217 | 8.0 | 12.0 | 0.00 | 0.00 | 0.00 | 25 | 1019.2 |
| 20260503183517 | 63 | 261 | 6.0 | 16.0 | 0.00 | 0.00 | 0.00 | 24 | 1019.5 |
| 20260503183029 | 63 | 242 | 9.0 | 16.0 | 0.00 | 0.00 | 0.00 | 24 | 1019.5 |
| 20260503182513 | 63 | 264 | 7.0 | 13.0 | 0.00 | 0.00 | 0.00 | 23 | 1019.6 |
| 20260503182011 | 62 | 274 | 7.0 | 10.0 | 0.00 | 0.00 | 0.00 | 25 | 1019.6 |
| 20260503181532 | 62 | 281 | 5.0 | 12.0 | 0.00 | 0.00 | 0.00 | 27 | 1019.8 |
| 20260503181014 | 62 | 273 | 9.0 | 12.0 | 0.00 | 0.00 | 0.00 | 27 | 1019.7 |
| 20260503180513 | 62 | 283 | 5.0 | 7.0 | 0.00 | 0.00 | 0.00 | 27 | 1019.8 |
| 20260503180034 | 62 | 264 | 4.0 | 10.0 | 0.00 | 0.00 | 0.00 | 29 | 1019.8 |
| 20260503175513 | 62 | 238 | 6.0 | 10.0 | 0.00 | 0.00 | 0.00 | 25 | 1019.9 |
| 20260503175013 | 63 | 271 | 6.0 | 15.0 | 0.00 | 0.00 | 0.00 | 26 | 1019.9 |
| 20260503174536 | 63 | 256 | 8.0 | 15.0 | 0.00 | 0.00 | 0.00 | 26 | 1020.0 |
| 20260503174013 | 63 | 266 | 8.0 | 15.0 | 0.00 | 0.00 | 0.00 | 27 | 1020.0 |
| 20260503173513 | 63 | 236 | 5.0 | 18.0 | 0.00 | 0.00 | 0.00 | 25 | 1020.1 |
| 20260503173032 | 62 | 265 | 10.0 | 18.0 | 0.00 | 0.00 | 0.00 | 29 | 1020.2 |
| 20260503172513 | 62 | 275 | 9.0 | 18.0 | 0.00 | 0.00 | 0.00 | 27 | 1020.2 |
| 20260503172015 | 63 | 240 | 9.0 | 18.0 | 0.00 | 0.00 | 0.00 | 28 | 1020.2 |
| 20260503171529 | 62 | 307 | 8.0 | 12.0 | 0.00 | 0.00 | 0.00 | 29 | 1020.1 |
| 20260503171014 | 60 | 301 | 5.0 | 18.0 | 0.00 | 0.00 | 0.00 | 30 | 1020.3 |
| 20260503170515 | 61 | 313 | 7.0 | 18.0 | 0.00 | 0.00 | 0.00 | 30 | 1020.3 |
| 20260503151013 | 58 | 0 | 0.0 | 2.0 | 0.00 | 0.00 | 0.00 | 31 | 1021.2 |
| 20260503150514 | 58 | 97 | 0.0 | 3.0 | 0.00 | 0.00 | 0.00 | 32 | 1021.3 |
| 20260503131013 | 42 | 107 | 5.0 | 7.0 | 0.00 | 0.00 | 0.00 | 52 | 1021.3 |
| 20260503130514 | 42 | 105 | 4.0 | 11.0 | 0.00 | 0.00 | 0.00 | 51 | 1021.3 |
| 20260503110513 | 38 | 98 | 3.0 | 6.0 | 0.00 | 0.00 | 0.00 | 53 | 1020.6 |
| 20260503090512 | 42 | 102 | 4.0 | 10.0 | 0.00 | 0.00 | 0.00 | 49 | 1020.9 |
| 20260503081530 | 42 | 89 | 7.0 | 12.0 | 0.00 | 0.00 | 0.00 | 52 | 1020.8 |
| 20260503081014 | 41 | 89 | 7.0 | 10.0 | 0.00 | 0.00 | 0.00 | 53 | 1020.9 |
| 20260503080512 | 41 | 91 | 8.0 | 9.0 | 0.00 | 0.00 | 0.00 | 52 | 1020.9 |
| 20260503072514 | 40 | 98 | 4.0 | 8.0 | 0.00 | 0.00 | 0.00 | 56 | 1021.3 |
| 20260503072014 | 40 | 153 | 5.0 | 8.0 | 0.00 | 0.00 | 0.00 | 56 | 1021.4 |
| 20260503071536 | 39 | 79 | 5.0 | 8.0 | 0.00 | 0.00 | 0.00 | 57 | 1021.4 |
| 20260503071018 | 40 | 103 | 3.0 | 8.0 | 0.00 | 0.00 | 0.00 | 57 | 1021.5 |
| 20260503070513 | 40 | 71 | 3.0 | 8.0 | 0.00 | 0.00 | 0.00 | 56 | 1021.5 |
| 20260503055014 | 48 | 94 | 3.0 | 7.0 | 0.00 | 0.00 | 0.00 | 40 | 1021.5 |
| 20260503054540 | 48 | 94 | 4.0 | 7.0 | 0.00 | 0.00 | 0.00 | 40 | 1021.5 |
| 20260503054013 | 48 | 117 | 4.0 | 6.0 | 0.00 | 0.00 | 0.00 | 41 | 1021.4 |
| 20260503053513 | 48 | 108 | 4.0 | 6.0 | 0.00 | 0.00 | 0.00 | 41 | 1021.4 |
| 20260503053032 | 48 | 107 | 3.0 | 6.0 | 0.00 | 0.00 | 0.00 | 42 | 1021.3 |
| 20260503052512 | 47 | 116 | 4.0 | 6.0 | 0.00 | 0.00 | 0.00 | 44 | 1021.4 |
| 20260503052015 | 47 | 103 | 2.0 | 4.0 | 0.00 | 0.00 | 0.00 | 44 | 1021.4 |
| 20260503051534 | 47 | 115 | 3.0 | 4.0 | 0.00 | 0.00 | 0.00 | 44 | 1021.4 |
| 20260503051015 | 47 | 88 | 2.0 | 4.0 | 0.00 | 0.00 | 0.00 | 44 | 1021.5 |
| 20260503050517 | 47 | 84 | 3.0 | 3.0 | 0.00 | 0.00 | 0.00 | 45 | 1021.3 |
| 20260503050032 | 46 | 96 | 2.0 | 4.0 | 0.00 | 0.00 | 0.00 | 46 | 1021.4 |
| 20260503045514 | 46 | 94 | 3.0 | 4.0 | 0.00 | 0.00 | 0.00 | 46 | 1021.3 |
| 20260503045024 | 46 | 70 | 3.0 | 4.0 | 0.00 | 0.00 | 0.00 | 48 | 1021.2 |
| 20260503044536 | 46 | 95 | 2.0 | 5.0 | 0.00 | 0.00 | 0.00 | 48 | 1021.3 |
| 20260503044015 | 47 | 82 | 2.0 | 5.0 | 0.00 | 0.00 | 0.00 | 47 | 1021.3 |
| 20260503043513 | 47 | 79 | 3.0 | 5.0 | 0.00 | 0.00 | 0.00 | 46 | 1021.4 |